Flag for U.S.A. Weather past 2 weeks in Charlottesville, Virginia, U.S.A.

Now
24 °F

Passing clouds.


Feels Like: 24 °F
Forecast: 20 / 35 °F
Wind: No wind

Location: Charlottesville-Albemarle Airport

Current Time: Feb 28, 2015 at 10:51:06 PM

Latest Report: Feb 28, 2015 at 9:53 PM


Visibility: 10 mi

Pressure: 30.74 "Hg

Humidity: 50%

Dew point: 8 °F

Location of CharlottesvilleLocation

Historic Weather in Charlottesville — Graph

°F

Charlottesville temperature yesterday

Maximum temperature yesterday: 38 °F (at 1:53 PM)
Minimum temperature yesterday: 23 °F (at 11:53 PM)
Average temperature yesterday: 31 °F

Past Weeks' High & Low Weather Summary

 TemperatureHumidityPressure
High48 °F (Feb 22, 2:53 PM)100% (Feb 22, 7:53 AM)30.85 "Hg (Feb 22, 7:53 AM)
Low0 °F (Feb 20, 6:53 AM)19% (Feb 16, 10:53 AM)29.47 "Hg (Feb 14, 4:53 PM)
Average23 °F55%30.15 "Hg
* Reported Feb 13 9:53 PM — Feb 28 9:53 PM, Charlottesville, Weather by CustomWeather, © 2015

Note: Actual official high and low records may vary slightly from our data, if they occured in-between our weather recording intervals... More about our weather records

Advertising

Charlottesville weather history for previous 24 hours

 ConditionsComfort  
Time TempWeatherWind HumidityBarometerVisibility
9:53 PM
Sat, Feb 28
24 °FPassing clouds.No wind50%30.74 "Hg10 mi
8:53 PM25 °FClear.3 mph48%30.75 "Hg10 mi
7:53 PM28 °FClear.No wind43%30.73 "Hg10 mi
6:53 PM28 °FClear.No wind45%30.73 "Hg10 mi
5:53 PM30 °FSunny.3 mph38%30.72 "Hg10 mi
4:53 PM30 °FSunny.5 mph38%30.73 "Hg10 mi
3:53 PM30 °FSunny.No wind38%30.73 "Hg10 mi
2:53 PM30 °FSunny.No wind34%30.73 "Hg10 mi
1:53 PM29 °FSunny.No wind36%30.76 "Hg10 mi
12:53 PM26 °FSunny.3 mph38%30.80 "Hg10 mi
11:53 AM24 °FSunny.5 mph40%30.83 "Hg10 mi
10:53 AM23 °FSunny.No wind40%30.84 "Hg10 mi
9:53 AM21 °FSunny.5 mph43%30.84 "Hg10 mi
8:53 AM18 °FSunny.3 mph49%30.85 "Hg10 mi
7:53 AM15 °FSunny.3 mph56%30.80 "Hg10 mi
6:53 AM15 °FSunny.No wind56%30.78 "Hg10 mi
5:53 AM15 °FClear.5 mph56%30.76 "Hg10 mi
4:53 AM17 °FClear.No wind51%30.73 "Hg10 mi
3:53 AM19 °FClear.6 mph47%30.71 "Hg10 mi
2:53 AM20 °FClear.7 mph50%30.68 "Hg10 mi
1:53 AM21 °FClear.6 mph50%30.67 "Hg10 mi
12:53 AM22 °FClear.3 mph50%30.64 "Hg10 mi
11:53 PM
Fri, Feb 27
23 °FClear.6 mph50%30.62 "Hg10 mi
10:53 PM25 °FClear.7 mph48%30.60 "Hg10 mi
Weather by CustomWeather, © 2015

See weather overviewHow to use our weather pages